Regional Weather Roundup
Issued by NWS Raleigh/Durham, NC

Home | Current Version | Previous Version | Text Only | Print | Product List | Glossary On
Versions: 1 2 3 4 5 6 7 8 9 10 11 12 13 14 15 16 17 18 19 20 21 22 23 24 25 26 27 28 29 30 31 32 33 34 35 36 37 38 39 40 41 42 43 44 45 46 47 48 49 50
000
ASUS42 KRAH 290310
RWRRAH
NORTH CAROLINA WEATHER ROUNDUP
NATIONAL WEATHER SERVICE RALEIGH NC
1100 PM EDT TUE JUL 28 2015

NOTE: "FAIR" INDICATES FEW OR NO CLOUDS BELOW 12,000 FEET WITH NO
SIGNIFICANT WEATHER AND/OR OBSTRUCTIONS TO VISIBILITY.

NCZ001-053-055-056-065-067-290400-
WESTERN NORTH CAROLINA

CITY           SKY/WX    TMP DP  RH WIND       PRES   REMARKS
ASHEVILLE      CLOUDY    75  69  81 SE3       30.09S
JEFFERSON      MOCLDY    70  69  98 CALM      30.15S
MORGANTON      PTCLDY    77  71  83 CALM      30.08S
HICKORY        PTCLDY    76  71  85 CALM      30.03F
RUTHERFORDTON  CLOUDY    75  73  94 CALM      30.03S
MOUNT AIRY     MOCLDY    72  69  91 CALM      30.06R
BOONE          CLOUDY    70  68  93 CALM      30.16S
$$

NCZ021-022-025-041-071-084-088-290400-
CENTRAL NORTH CAROLINA

CITY           SKY/WX    TMP DP  RH WIND       PRES   REMARKS
CHARLOTTE      MOCLDY    75  71  87 NW3       30.01R
GREENSBORO     CLOUDY    76  75  97 N3        30.02R
WINSTON-SALEM  MOCLDY    74  72  93 CALM      30.04R
RALEIGH-DURHAM LGT RAIN  77  74  90 CALM      30.00R
FORT BRAGG     PTCLDY    82  69  66 S3        29.97S
FAYETTEVILLE   PTCLDY    80  69  69 S6        29.98R
BURLINGTON     MOCLDY    74  73  97 NE3       30.01R FOG
LAURINBURG     CLEAR     80  67  64 S5        29.99R
$$

NCZ011-015-027-028-043-044-047-080-103-290400-
NORTHEASTERN NORTH CAROLINA

CITY           SKY/WX    TMP DP  RH WIND       PRES   REMARKS
ROCKY MT-WILSO PTCLDY    78  72  81 E3        29.99S
GREENVILLE     PTCLDY    79  72  78 SE5       30.02S
WASHINGTON     PTCLDY    76  71  85 CALM      30.01S
ELIZABETH CITY MOCLDY    76  71  85 SE3       30.02R
MANTEO         PTCLDY    75  70  86 CALM      30.03R
CAPE HATTERAS  PTCLDY    76  68  76 E5        30.02R
$$

NCZ078-087-090-091-093-098-101-290400-
SOUTHEASTERN NORTH CAROLINA

CITY           SKY/WX    TMP DP  RH WIND       PRES   REMARKS
LUMBERTON      PTCLDY    79  70  74 SE3       29.98R
GOLDSBORO      PTCLDY    79  74  84 SE3       29.98R
KINSTON        PTCLDY    79  70  74 S3        30.01R
KENANSVILLE    PTCLDY    74  69  85 CALM      30.01R
NEW BERN       PTCLDY    75  71  87 CALM      30.01R
CHERRY POINT   PTCLDY    77  70  79 CALM      30.01R
BEAUFORT       PTCLDY    79  71  76 E5        30.00S
JACKSONVILLE   PTCLDY    80  71  74 E8        29.99S
WILMINGTON     PTCLDY    76  71  85 N3        29.99R
$$



USA.gov is the U.S. government's official web portal to all federal, state and local government web resources and services.